Total_Precipitation_Accumulation
0.23 0.44 1.01 1.66 2.73 3.01 2.34 1.48 1.06 0.93 0.94 0.91 0.83 0.88 0.98 1.24 1.79 2.87 2.89 2.46 1.90 1.95 2.53 2.76 3.07 2.92 2.80 2.71 2.77 2.91 2.91 2.67 2.48 2.47 2.53 2.57 2.58 2.46 2.47 2.54 2.58 2.61 2.59 2.69 2.87 2.83 2.90 2.94 2.93
0.42 0.79 1.49 2.49 3.20 2.66 2.13 1.38 0.85 0.75 0.77 0.90 0.90 0.83 0.74 0.86 1.03 1.60 2.29 2.36 1.61 1.53 1.94 2.10 2.53 2.60 2.61 2.47 2.53 2.69 2.61 2.42 2.34 2.24 2.40 2.51 2.53 2.54 2.52 2.59 2.69 2.73 2.68 2.77 2.88 2.87 2.92 2.93 2.93
0.64 1.01 1.76 2.75 2.36 1.93 1.81 1.25 0.77 0.56 0.69 0.96 0.98 0.73 0.83 1.17 1.25 1.66 1.99 1.86 1.49 1.46 1.65 2.01 2.35 2.37 2.37 2.27 2.29 2.37 2.28 2.21 2.21 2.21 2.32 2.43 2.56 2.63 2.63 2.64 2.78 3.00 3.06 3.03 2.99 3.06 3.05 2.95 2.84
0.90 1.30 1.93 2.15 1.48 1.05 1.04 0.97 0.77 0.69 0.83 0.94 0.85 0.79 1.00 1.37 1.38 1.49 1.48 1.40 1.26 1.52 1.71 2.04 2.41 2.32 2.27 2.19 2.13 2.10 2.09 2.09 2.11 2.20 2.40 2.48 2.55 2.60 2.64 2.70 2.86 3.16 3.19 2.96 3.00 3.11 3.07 3.07 3.02
1.12 1.72 2.35 1.81 1.26 0.87 0.68 0.67 0.69 0.80 0.88 0.98 0.86 0.92 1.37 1.54 1.23 1.14 1.10 1.27 1.37 1.67 1.95 2.21 2.48 2.49 2.46 2.30 2.14 2.03 1.92 1.97 2.02 2.09 2.31 2.41 2.45 2.43 2.52 2.66 2.67 2.70 2.82 2.95 3.04 3.03 2.97 3.08 3.09
1.45 1.82 1.99 1.42 0.96 0.69 0.56 0.57 0.69 0.85 0.82 0.87 0.97 1.15 1.78 1.74 1.32 1.17 1.15 1.35 1.53 1.71 2.01 2.43 2.69 2.82 2.77 2.50 2.22 2.06 1.94 1.88 1.91 1.97 2.03 2.17 2.29 2.39 2.62 2.68 2.48 2.34 2.49 2.83 3.04 3.03 3.06 3.08 3.09
1.53 1.82 1.69 1.10 0.80 0.66 0.61 0.57 0.60 0.76 0.83 1.00 1.02 1.21 1.83 2.01 1.52 1.20 1.32 1.69 1.90 1.94 1.94 2.35 2.71 2.87 2.93 2.71 2.32 2.18 2.05 1.91 1.86 1.82 1.90 1.99 2.15 2.25 2.47 2.62 2.52 2.35 2.38 2.71 3.03 3.10 3.30 3.15 2.91
1.03 1.26 1.30 0.94 0.73 0.61 0.51 0.50 0.59 0.76 0.86 0.90 1.00 1.25 1.60 1.68 1.41 1.35 1.63 2.18 2.51 2.46 2.23 2.06 2.20 2.63 2.87 2.67 2.52 2.47 2.15 1.85 1.84 1.88 2.07 2.26 2.42 2.47 2.57 2.55 2.74 2.53 2.44 2.68 3.02 3.14 3.19 3.09 3.04
0.71 1.05 1.18 0.84 0.59 0.50 0.47 0.49 0.52 0.59 0.68 0.91 1.13 1.34 1.34 1.16 1.18 1.43 1.83 2.31 2.67 2.53 2.41 2.12 2.02 2.24 2.44 2.30 2.18 2.40 2.17 1.99 2.16 2.42 2.58 2.70 2.74 2.53 2.65 2.58 3.12 3.05 2.93 3.10 3.29 3.41 3.53 3.55 3.56
0.64 0.89 0.75 0.49 0.39 0.42 0.41 0.43 0.43 0.64 0.94 1.37 1.64 1.53 1.31 1.18 1.31 1.60 1.91 2.08 2.21 2.27 2.24 2.28 2.06 2.09 2.16 2.01 2.26 2.75 2.46 2.45 2.73 2.88 2.77 3.33 3.52 3.28 2.64 2.79 3.44 3.64 3.69 3.72 3.75 3.99 3.94 3.79 3.74
0.48 0.50 0.39 0.30 0.25 0.31 0.37 0.37 0.42 0.65 1.21 1.67 1.88 1.57 1.35 1.37 1.51 1.66 2.06 2.25 2.36 2.38 2.26 2.34 2.21 2.21 2.39 2.60 2.61 2.87 2.99 3.15 3.28 3.29 3.33 3.70 3.53 3.15 2.87 3.11 3.58 3.72 3.72 3.73 3.86 4.12 3.80 3.71 3.87
0.24 0.20 0.20 0.20 0.20 0.23 0.26 0.32 0.51 0.76 1.19 1.45 1.37 1.20 1.19 1.48 1.69 1.90 2.24 2.59 2.71 2.83 2.78 2.55 2.42 2.67 2.87 2.85 2.77 2.68 2.52 2.60 2.85 3.00 2.96 3.48 3.95 3.81 3.66 3.79 3.73 3.94 4.09 4.37 4.05 4.07 4.05 4.02 3.87
0.20 0.17 0.16 0.17 0.18 0.21 0.22 0.31 0.51 0.82 1.03 1.07 0.94 0.98 1.26 1.61 1.88 2.37 2.86 2.93 2.92 3.21 3.39 3.21 3.09 3.11 3.00 3.13 2.79 2.47 2.45 2.30 2.27 2.67 2.97 3.19 3.62 3.81 3.87 3.68 3.66 3.50 3.65 3.79 3.80 3.53 3.82 4.09 4.08
0.15 0.14 0.17 0.20 0.20 0.21 0.28 0.37 0.49 0.73 0.82 0.83 0.90 1.14 1.35 1.78 2.10 2.65 3.16 3.23 3.34 3.64 3.88 3.80 3.79 3.62 3.34 3.10 3.00 2.89 2.69 2.61 2.30 2.56 2.72 2.99 3.36 3.53 3.43 3.49 3.63 3.45 3.48 3.48 3.50 3.54 3.96 4.25 4.32
0.14 0.18 0.25 0.24 0.23 0.23 0.33 0.62 0.64 0.79 0.88 0.88 1.08 1.21 1.57 2.03 2.31 2.65 2.89 3.29 3.74 4.19 4.28 4.24 4.23 4.18 4.17 3.83 3.44 3.09 3.06 2.79 2.73 2.74 2.67 2.89 3.22 3.48 3.41 3.37 3.23 3.23 3.31 3.50 3.54 3.68 3.92 3.84 3.98
0.23 0.41 0.56 0.42 0.32 0.28 0.42 0.99 1.05 0.95 0.90 1.01 1.20 1.46 1.70 1.98 2.39 2.63 2.95 3.32 3.76 4.33 4.76 4.85 4.32 4.36 4.47 4.42 4.11 3.63 3.56 3.42 3.26 2.95 2.80 2.78 3.06 3.19 3.25 3.07 2.96 3.01 2.91 3.08 3.40 3.45 3.55 3.71 3.93
0.28 0.42 0.51 0.52 0.35 0.32 0.49 1.08 1.37 1.09 0.91 1.05 1.36 1.61 1.90 2.13 2.55 2.68 2.87 3.16 3.66 4.62 5.58 5.60 5.11 4.70 4.45 4.45 4.53 4.36 4.18 3.87 3.41 3.20 3.10 2.93 2.79 2.60 2.72 2.80 2.89 2.73 2.71 2.83 2.71 3.29 3.52 3.66 3.82
0.21 0.26 0.41 0.59 0.41 0.37 0.54 1.00 1.07 1.04 1.15 1.13 1.22 1.40 1.65 1.77 2.08 2.35 2.66 3.22 4.05 5.30 6.13 6.05 5.43 5.05 4.77 4.59 4.46 4.47 4.22 3.95 3.49 3.33 3.15 2.88 2.86 2.51 2.58 2.57 2.67 2.56 2.74 2.98 3.21 3.56 3.53 3.42 3.53
0.17 0.22 0.35 0.43 0.36 0.45 0.59 0.90 1.02 1.14 1.32 1.29 1.19 1.21 1.44 1.62 1.91 2.37 2.93 3.78 4.88 5.86 6.17 5.69 5.23 4.98 4.61 4.25 3.67 3.39 3.53 3.48 3.26 2.91 2.54 2.50 2.40 2.49 2.79 2.54 2.76 2.59 2.75 2.88 3.01 3.23 3.28 3.14 3.24
0.17 0.23 0.34 0.41 0.32 0.37 0.62 1.00 1.29 1.25 1.20 1.17 1.26 1.28 1.35 1.69 2.12 2.83 3.85 4.42 4.71 4.88 4.64 4.33 4.15 4.01 3.52 3.27 3.21 3.04 3.12 2.86 2.72 2.62 2.72 2.32 2.17 2.27 2.28 2.66 2.64 2.67 2.92 2.93 2.93 3.16 3.11 2.98 3.07
0.20 0.23 0.32 0.39 0.30 0.37 0.66 1.24 1.54 1.44 1.18 1.05 1.17 1.21 1.34 1.72 2.31 3.13 3.71 3.83 3.58 3.26 3.13 3.11 3.25 3.06 2.96 3.06 3.03 2.96 3.06 2.77 2.59 2.56 2.70 2.30 1.99 1.98 2.10 2.27 2.50 2.74 2.63 2.83 2.94 2.87 3.03 3.10 3.04
0.22 0.17 0.16 0.20 0.30 0.56 0.79 1.52 1.70 1.47 1.37 1.15 1.19 1.21 1.21 1.45 1.85 2.29 2.56 2.45 2.54 2.67 2.68 2.83 2.96 2.75 2.80 2.84 2.63 2.55 2.49 2.38 2.36 2.42 2.53 2.56 2.10 1.92 1.93 2.04 2.27 2.50 2.39 2.70 2.49 2.71 3.11 3.15 2.93
0.13 0.11 0.15 0.22 0.37 0.60 0.83 1.24 1.47 1.24 1.40 1.18 1.05 1.03 0.96 1.14 1.33 1.46 1.57 1.67 1.86 1.99 2.16 2.45 2.74 2.76 2.65 2.53 2.53 2.57 2.41 2.41 2.39 2.41 2.51 2.60 2.39 2.09 1.87 1.97 2.21 2.34 2.30 2.39 2.46 2.88 2.92 2.90 2.90
0.10 0.13 0.25 0.36 0.56 1.10 1.07 1.12 1.38 1.38 1.39 1.21 1.04 0.86 0.87 1.01 1.19 1.29 1.29 1.38 1.56 1.71 1.93 2.19 2.58 2.72 2.69 2.53 2.44 2.46 2.51 2.52 2.46 2.50 2.49 2.31 2.28 2.25 2.05 2.06 2.23 2.21 2.22 2.29 2.36 2.67 2.68 2.86 3.01
0.13 0.19 0.44 0.81 1.19 1.37 0.90 0.98 1.30 1.20 1.05 0.94 0.73 0.67 0.75 0.94 1.10 1.29 1.31 1.28 1.35 1.50 1.63 1.74 2.03 2.34 2.49 2.42 2.38 2.36 2.52 2.44 2.26 2.20 2.18 2.16 1.95 1.90 1.97 2.06 2.25 2.13 2.13 2.22 2.51 2.67 2.65 2.81 2.86
0.11 0.14 0.29 0.47 0.57 0.71 0.88 1.28 1.40 1.17 0.79 0.54 0.52 0.65 0.81 0.94 1.03 1.15 1.20 1.16 1.22 1.29 1.45 1.61 1.94 2.13 2.31 2.34 2.33 2.35 2.42 2.30 2.13 2.18 2.00 1.98 1.91 1.82 1.90 2.01 2.01 2.00 2.07 2.11 2.57 2.46 2.54 2.71 2.63
0.12 0.13 0.14 0.21 0.25 0.51 0.92 1.22 1.18 1.00 0.78 0.63 0.60 0.68 0.88 0.90 0.86 0.97 1.01 1.17 1.25 1.23 1.38 1.53 1.81 2.17 2.40 2.50 2.57 2.52 2.49 2.45 2.39 2.32 2.09 1.90 2.03 1.91 2.00 2.08 2.07 2.09 2.27 2.43 2.66 2.48 2.52 2.69 2.50
0.11 0.14 0.17 0.18 0.27 0.44 0.76 1.19 1.40 1.22 0.98 0.83 0.76 0.76 0.82 0.84 0.85 1.06 1.25 1.34 1.23 1.11 1.22 1.36 1.65 2.14 2.43 2.60 2.57 2.43 2.61 2.50 2.47 2.37 2.15 1.98 1.98 2.03 2.16 2.29 2.27 2.33 2.37 2.49 2.62 2.41 2.53 2.58 2.47
0.11 0.13 0.18 0.19 0.20 0.30 0.61 0.88 0.84 0.85 0.80 0.78 0.83 0.81 0.67 0.73 0.88 1.12 1.41 1.45 1.27 1.09 1.06 1.21 1.59 1.92 2.17 2.37 2.45 2.31 2.27 2.21 2.22 2.23 2.17 2.11 2.12 2.10 2.11 2.23 2.28 2.26 2.31 2.43 2.54 2.33 2.41 2.42 2.46
0.12 0.15 0.19 0.23 0.22 0.21 0.36 0.62 0.48 0.57 0.65 0.75 0.89 0.95 0.90 0.92 0.98 1.03 1.20 1.37 1.28 1.20 1.16 1.36 1.65 1.83 1.94 2.06 2.11 2.09 2.09 2.09 2.02 1.97 2.05 2.12 2.04 1.94 2.00 2.08 2.09 2.02 2.15 2.35 2.36 2.23 2.33 2.40 2.38